THORAD AGENA D DEB, 4657

Orbit data source: Space-Track

THORAD AGENA D DEB, 4657 is space debris in SSO originally from a launch on Wed, 08 Apr 1970 UTC launched from the Air Force Western Test Range (AFWTR). Debris objects in space refer to the collection of defunct objects orbiting the Earth. Examples of debris include non-operational satellites, rocket bodies, and fragments generated from explosions, collisions, or faulty payload assembly.

Loading next visibility...
Identifier
4657, 1970-025AR
Orbit
SSO
Country
Flag of USUS
Related business
Manufacturer
Unknown
Mission
Spacecraft
Bus & Motor
Unknown
Mass
Unknown
Launch date (UTC)
1970-04-08 (56 years ago)
Launch vehicle
Unknown
Launch site
Air Force Western Test Range (AFWTR)
Object type
Payload
Rocket body
Debris
Shape & HBR
Unknown shape, 1.1 m
Radar Cross Section
Medium (>0.1 m² and <1 m²)

Expand to show TLE details & history
Last TLE update: 12 hours ago

TLE from 12 hours ago
0 THORAD AGENA D DEB
1 04657U 70025AR  25346.85698954  .00000630  00000-0  75058-3 0  9997
2 04657 100.1230 210.2303 0015750 174.1101 197.5264 13.71761705769177
Epoch: 2025-12-12T20:34Z
TLE epoch observation values (Epoch: 2025-12-12T20:34:03.896Z)
Latitude
11.35513°
Longitude
177.87734°
Altitude
1,006.372 km
Speed
7.344 km/s
True Right ascension
13h 52m 44s
True Declination
11° 17' 28"
Sunlit
Object was in daylight at epoch
Visualization orbit readout
Latitude
Unknown
Longitude
Unknown
Altitude
Unknown
Speed
Unknown
Apparent Right ascension
Unknown
Apparent Declination
Unknown
Sunlit
N/A
Visualization observer readout
Local Sidereal Time
07:26:33
Azimuth
Unknown
Elevation
Unknown
Doppler factor
Unknown
Orbital elements
Apogee altitude
1,002.154 km
Perigee altitude
978.942 km
Semi-major axis
7,368.685 km
Eccentricity
0.00158
Inclination
100.123°
RAAN
210.2303°
Arg. of periapsis
174.1101°
True anomaly
197.47215°
Mean anomaly
197.5264°
Eccentric anomaly
197.49927°
Mean motion
3.4313 °/min
Orbital period
104.92 mins
BSTAR
0.00075058
Loading maneuver chart data...
Computing Atmospheric mass density...

Documentation

Showing up to 5 results
|